When you browse on this site, cookies collect data to enhance your experience and personalize the content and advertising you see.
Visit our Privacy Policy to learn more. By continuing to use the site, you agree to this use of cookies and data.
  • In United Kingdom
  • List of Countries
  • For 7 days
  • Water Temperature
  • Weather Map
  • Weather Widgets
  • user-avatar
    Login

    Hourly Weather Norwich

    Today, 28 May, Thursday

    Time Temperature Precipitation Wind Pressure Humidity
    00:00 +9°C° 0 mm 2 mps 775 mmHg 95%
    01:00 +9°C° 0 mm 2 mps 774 mmHg 94%
    02:00 +8°C° 0 mm 2 mps 774 mmHg 93%
    03:00 +8°C° 0 mm 2 mps 774 mmHg 92%
    04:00 +9°C° 0 mm 2 mps 774 mmHg 89%
    05:00 +10°C° 0 mm 2 mps 774 mmHg 87%
    06:00 +12°C° 0 mm 2 mps 774 mmHg 84%
    07:00 +14°C° 0 mm 2 mps 774 mmHg 77%
    08:00 +14°C° 0 mm 3 mps 774 mmHg 70%
    09:00 +16°C° 0 mm 3 mps 774 mmHg 63%
    10:00 +17°C° 0 mm 3 mps 774 mmHg 61%
    11:00 +17°C° 0 mm 3 mps 774 mmHg 59%
    12:00 +18°C° 0 mm 3 mps 773 mmHg 56%
    13:00 +18°C° 0 mm 3 mps 773 mmHg 57%
    14:00 +18°C° 0 mm 3 mps 773 mmHg 57%
    15:00 +18°C° 0 mm 3 mps 772 mmHg 58%
    16:00 +17°C° 0 mm 4 mps 772 mmHg 62%
    17:00 +15°C° 0 mm 4 mps 772 mmHg 67%
    18:00 +14°C° 0 mm 4 mps 772 mmHg 71%
    19:00 +13°C° 0 mm 3 mps 772 mmHg 76%
    20:00 +11°C° 0 mm 3 mps 772 mmHg 80%
    21:00 +9°C° 0 mm 3 mps 772 mmHg 85%
    22:00 +9°C° 0 mm 3 mps 772 mmHg 85%
    23:00 +9°C° 0 mm 3 mps 771 mmHg 85%

    Tomorrow, 29 May, Friday

    Time Temperature Precipitation Wind Pressure Humidity
    00:00 +9°C° 0 mm 3 mps 771 mmHg 85%
    01:00 +8°C° 0 mm 2 mps 771 mmHg 87%
    02:00 +8°C° 0 mm 2 mps 771 mmHg 89%
    03:00 +8°C° 0 mm 2 mps 771 mmHg 90%
    04:00 +9°C° 0 mm 2 mps 771 mmHg 87%
    05:00 +10°C° 0 mm 2 mps 771 mmHg 84%
    06:00 +12°C° 0 mm 2 mps 770 mmHg 81%
    07:00 +13°C° 0 mm 3 mps 770 mmHg 74%
    08:00 +14°C° 0 mm 3 mps 770 mmHg 67%
    09:00 +16°C° 0 mm 3 mps 770 mmHg 59%
    10:00 +17°C° 0 mm 4 mps 770 mmHg 57%
    11:00 +17°C° 0 mm 4 mps 770 mmHg 55%
    12:00 +18°C° 0 mm 4 mps 770 mmHg 53%
    13:00 +17°C° 0 mm 4 mps 769 mmHg 54%
    14:00 +17°C° 0 mm 4 mps 769 mmHg 55%
    15:00 +17°C° 0 mm 4 mps 769 mmHg 56%
    16:00 +15°C° 0 mm 4 mps 768 mmHg 60%
    17:00 +14°C° 0 mm 4 mps 768 mmHg 64%
    18:00 +13°C° 0 mm 4 mps 767 mmHg 68%
    19:00 +12°C° 0 mm 4 mps 768 mmHg 74%
    20:00 +10°C° 0 mm 4 mps 768 mmHg 81%
    21:00 +9°C° 0 mm 3 mps 768 mmHg 87%
    22:00 +9°C° 0 mm 3 mps 768 mmHg 88%
    23:00 +8°C° 0 mm 3 mps 768 mmHg 89%

    Day after tomorrow, 30 May, Saturday

    Time Temperature Precipitation Wind Pressure Humidity
    00:00 +8°C° 0 mm 3 mps 768 mmHg 90%
    01:00 +8°C° 0 mm 3 mps 768 mmHg 91%
    02:00 +8°C° 0 mm 3 mps 767 mmHg 91%
    03:00 +8°C° 0 mm 3 mps 767 mmHg 92%
    04:00 +8°C° 0 mm 4 mps 767 mmHg 89%
    05:00 +11°C° 0 mm 4 mps 767 mmHg 87%
    06:00 +12°C° 0 mm 4 mps 767 mmHg 84%
    07:00 +13°C° 0 mm 4 mps 767 mmHg 80%
    08:00 +15°C° 0 mm 4 mps 767 mmHg 76%
    09:00 +16°C° 0 mm 5 mps 767 mmHg 72%
    10:00 +16°C° 0 mm 5 mps 767 mmHg 70%
    11:00 +17°C° 0 mm 5 mps 767 mmHg 67%
    12:00 +17°C° 0 mm 5 mps 767 mmHg 65%
    13:00 +17°C° 0 mm 5 mps 767 mmHg 66%
    14:00 +17°C° 0 mm 5 mps 766 mmHg 66%
    15:00 +17°C° 0 mm 5 mps 766 mmHg 67%
    16:00 +16°C° 0 mm 5 mps 766 mmHg 70%
    17:00 +15°C° 0 mm 5 mps 766 mmHg 73%
    18:00 +15°C° 0 mm 5 mps 766 mmHg 76%
    19:00 +13°C° 0 mm 5 mps 766 mmHg 82%
    20:00 +12°C° 0 mm 4 mps 766 mmHg 88%
    21:00 +10°C° 0 mm 4 mps 766 mmHg 93%
    22:00 +10°C° 0 mm 4 mps 766 mmHg 94%
    23:00 +10°C° 0 mm 4 mps 766 mmHg 94%

    31 May, Sunday

    Time Temperature Precipitation Wind Pressure Humidity
    00:00 +10°C° 0 mm 4 mps 766 mmHg 95%
    01:00 +10°C° 0 mm 4 mps 766 mmHg 95%
    02:00 +10°C° 0 mm 4 mps 766 mmHg 96%
    03:00 +10°C° 0 mm 3 mps 766 mmHg 96%
    04:00 +11°C° 0 mm 4 mps 766 mmHg 93%
    05:00 +12°C° 0 mm 4 mps 766 mmHg 91%
    06:00 +13°C° 0 mm 4 mps 766 mmHg 89%
    07:00 +14°C° 0 mm 4 mps 766 mmHg 79%
    08:00 +15°C° 0 mm 5 mps 766 mmHg 70%
    09:00 +16°C° 0 mm 5 mps 766 mmHg 61%
    10:00 +16°C° 0 mm 5 mps 766 mmHg 61%
    11:00 +16°C° 0 mm 5 mps 766 mmHg 60%
    12:00 +16°C° 0 mm 6 mps 766 mmHg 60%
    13:00 +16°C° 0 mm 6 mps 766 mmHg 59%
    14:00 +16°C° 0 mm 6 mps 766 mmHg 59%
    15:00 +16°C° 0 mm 6 mps 766 mmHg 58%
    16:00 +16°C° 0 mm 5 mps 766 mmHg 62%
    17:00 +15°C° 0 mm 5 mps 766 mmHg 66%
    18:00 +14°C° 0 mm 5 mps 766 mmHg 70%
    19:00 +13°C° 0 mm 4 mps 766 mmHg 77%
    20:00 +12°C° 0 mm 4 mps 766 mmHg 84%
    21:00 +10°C° 0 mm 3 mps 766 mmHg 91%
    22:00 +10°C° 0 mm 3 mps 766 mmHg 92%
    23:00 +10°C° 0 mm 3 mps 766 mmHg 92%

    1 June, Monday

    Time Temperature Precipitation Wind Pressure Humidity
    00:00 +10°C° 0 mm 2 mps 766 mmHg 93%
    01:00 +10°C° 0 mm 2 mps 765 mmHg 92%
    02:00 +10°C° 0 mm 2 mps 765 mmHg 92%
    03:00 +10°C° 0 mm 2 mps 765 mmHg 92%
    04:00 +12°C° 0 mm 2 mps 765 mmHg 90%
    05:00 +13°C° 0 mm 2 mps 765 mmHg 88%
    06:00 +14°C° 0 mm 2 mps 765 mmHg 86%
    07:00 +14°C° 0 mm 3 mps 765 mmHg 80%
    08:00 +17°C° 0 mm 3 mps 765 mmHg 74%
    09:00 +18°C° 0 mm 3 mps 765 mmHg 68%
    10:00 +19°C° 0 mm 3 mps 764 mmHg 66%
    11:00 +19°C° 0 mm 3 mps 764 mmHg 64%
    12:00 +20°C° 0 mm 4 mps 764 mmHg 61%
    13:00 +19°C° 0 mm 4 mps 764 mmHg 63%
    14:00 +19°C° 0 mm 4 mps 764 mmHg 64%
    15:00 +19°C° 0 mm 4 mps 763 mmHg 65%
    16:00 +18°C° 0 mm 4 mps 763 mmHg 69%
    17:00 +17°C° 0 mm 4 mps 763 mmHg 73%
    18:00 +15°C° 0 mm 4 mps 763 mmHg 77%
    19:00 +13°C° 0 mm 3 mps 763 mmHg 84%
    20:00 +12°C° 0 mm 3 mps 763 mmHg 90%
    21:00 +11°C° 0 mm 3 mps 763 mmHg 96%
    22:00 +10°C° 0 mm 3 mps 763 mmHg 96%
    23:00 +10°C° 0 mm 3 mps 762 mmHg 96%

    2 June, Tuesday

    Time Temperature Precipitation Wind Pressure Humidity
    00:00 +10°C° 0 mm 2 mps 762 mmHg 97%
    01:00 +10°C° 0 mm 3 mps 762 mmHg 97%
    02:00 +10°C° 0 mm 3 mps 761 mmHg 97%
    03:00 +10°C° 0 mm 3 mps 761 mmHg 97%
    04:00 +11°C° 0 mm 3 mps 761 mmHg 95%
    05:00 +12°C° 0 mm 3 mps 761 mmHg 94%
    06:00 +13°C° 0 mm 3 mps 761 mmHg 92%
    07:00 +16°C° 0 mm 3 mps 761 mmHg 87%
    08:00 +18°C° 0 mm 3 mps 761 mmHg 82%
    09:00 +19°C° 0 mm 3 mps 761 mmHg 77%
    10:00 +20°C° 0.2 mm 3 mps 761 mmHg 76%
    11:00 +21°C° 0.2 mm 3 mps 760 mmHg 75%
    12:00 +22°C° 0.2 mm 3 mps 760 mmHg 73%
    13:00 +22°C° 0.3 mm 3 mps 760 mmHg 73%
    14:00 +21°C° 0.3 mm 4 mps 760 mmHg 72%
    15:00 +21°C° 0.3 mm 4 mps 759 mmHg 72%
    16:00 +20°C° 0 mm 4 mps 759 mmHg 73%
    17:00 +20°C° 0 mm 4 mps 759 mmHg 75%
    18:00 +19°C° 0 mm 4 mps 759 mmHg 77%
    19:00 +17°C° 0 mm 4 mps 759 mmHg 82%
    20:00 +15°C° 0 mm 4 mps 759 mmHg 87%
    21:00 +13°C° 0 mm 4 mps 759 mmHg 92%
    22:00 +13°C° 0 mm 4 mps 759 mmHg 93%
    23:00 +13°C° 0 mm 4 mps 759 mmHg 93%
    Show more